Voltar ao catálogo

STARLINK-32585

AtivoComunicaçõesVLEO
NORAD 61953·PAYLOAD·🇺🇸 United States

Lançado Nov 14, 2024 de Vandenberg Space Force Base

Loading…

Próximas Passagens (próximas 24 horas)

TLE

AtualizadoSource: CelesTrak SupGP

Época: Sep 14, 2026, 21:26 UTC

1 61953C 24209Q   26257.89354167 -.00011621  00000+0 -34342-3 0  2574
2 61953  53.1596 334.2077 0001213  79.2053  25.0719 15.34389822    14

Acompanhe STARLINK-32585 em tempo real com AllMySat

Download on the App Store